Flag for France Weather past 2 weeks in Mulhouse, France

Now
64 °F

Passing clouds.


Feels Like: 64 °F
Forecast: 44 / 69 °F
Wind: 7 mph from Northwest

Location: Bale-Mulhouse

Current Time: May 27, 2015 at 4:42:16 PM

Latest Report: May 27, 2015 at 4:00 PM


Visibility: N/A

Pressure: 30.21 "Hg

Humidity: 40%

Dew point: 39 °F

Location of MulhouseLocation

Historic Weather in Mulhouse — Graph

°F

Mulhouse temperature yesterday

Maximum temperature yesterday: 59 °F (at 5:00 PM)
Minimum temperature yesterday: 50 °F (at 11:30 PM)
Average temperature yesterday: 56 °F

Past Weeks' High & Low Weather Summary

 TemperatureHumidityPressure
High88 °F (May 12, 4:00 PM)100% (May 15, 6:30 PM)30.30 "Hg (May 15, 6:30 PM)
Low39 °F (May 22, 5:00 AM)24% (May 12, 4:00 PM)29.77 "Hg (May 18, 6:30 PM)
Average58 °F71%30.06 "Hg
* Reported May 12 3:00 PM — May 27 3:30 PM, Mulhouse, Weather by CustomWeather, © 2015

Note: Actual official high and low records may vary slightly from our data, if they occured in-between our weather recording intervals... More about our weather records

Advertising

Mulhouse weather history for previous 24 hours

 ConditionsComfort  
Time TempWeatherWind HumidityBarometerVisibility
3:30 PM
Wed, May 27
64 °FSunny.5 mph40%30.21 "Hg10 mi
3:00 PM63 °FPassing clouds.5 mph39%30.21 "HgN/A
2:30 PM63 °FSunny.6 mph49%30.21 "Hg10 mi
2:00 PM63 °FPassing clouds.8 mph42%30.21 "HgN/A
1:30 PM59 °FScattered clouds.10 mph48%30.24 "HgN/A
1:00 PM61 °FPassing clouds.7 mph45%30.24 "HgN/A
12:30 PM61 °FPassing clouds.5 mph45%30.24 "HgN/A
12:00 PM59 °FScattered clouds.6 mph51%30.24 "HgN/A
11:30 AM57 °FScattered clouds.7 mph55%30.24 "HgN/A
11:00 AM57 °FScattered clouds.5 mph55%30.24 "HgN/A
10:30 AM55 °FPartly sunny.3 mph59%30.24 "HgN/A
10:00 AM54 °FPartly sunny.2 mph67%30.24 "HgN/A
9:30 AM52 °FPartly sunny.1 mph72%30.24 "HgN/A
9:00 AM50 °FSunny.2 mph76%30.24 "Hg10 mi
8:30 AM50 °FSunny.2 mph76%30.24 "Hg10 mi
8:00 AM48 °FPassing clouds.3 mph82%30.24 "HgN/A
7:30 AM46 °FSunny.2 mph87%30.24 "Hg10 mi
7:00 AM45 °FSunny.No wind93%30.24 "Hg10 mi
6:30 AM45 °FClear.1 mph93%30.24 "Hg10 mi
6:00 AM43 °FClear.3 mph93%30.24 "Hg10 mi
5:30 AM41 °FClear.No wind93%30.24 "Hg10 mi
5:00 AM43 °FClear.No wind87%30.24 "Hg10 mi
4:30 AM43 °FClear.No wind87%30.24 "Hg10 mi
4:00 AM43 °FClear.3 mph87%30.24 "Hg10 mi
3:30 AM43 °FClear.5 mph93%30.24 "Hg10 mi
3:00 AM45 °FClear.6 mph81%30.21 "Hg10 mi
2:30 AM45 °FClear.2 mph87%30.21 "Hg10 mi
2:00 AM46 °FClear.6 mph82%30.21 "Hg10 mi
12:00 AM50 °FClear.5 mph71%30.21 "Hg10 mi
11:30 PM
Tue, May 26
50 °FClear.2 mph76%30.21 "Hg10 mi
11:00 PM52 °FPassing clouds.7 mph67%30.21 "HgN/A
10:30 PM54 °FPassing clouds.7 mph67%30.18 "HgN/A
10:00 PM54 °FPassing clouds.8 mph63%30.18 "HgN/A
9:30 PM55 °FPartly sunny.9 mph59%30.18 "HgN/A
8:30 PM55 °FPartly sunny.8 mph67%30.15 "HgN/A
8:00 PM57 °FPartly sunny.10 mph59%30.15 "HgN/A
7:30 PM57 °FPartly sunny.10 mph63%30.12 "HgN/A
7:00 PM57 °FBroken clouds.9 mph67%30.12 "HgN/A
6:30 PM57 °FBroken clouds.12 mph67%30.12 "HgN/A
6:00 PM59 °FBroken clouds.10 mph63%30.09 "HgN/A
5:30 PM59 °FBroken clouds.8 mph68%30.09 "HgN/A
5:00 PM59 °FBroken clouds.7 mph68%30.09 "HgN/A
4:30 PM57 °FBroken clouds.9 mph72%30.09 "HgN/A
4:00 PM57 °FPartly sunny.10 mph77%30.09 "Hg6 mi
Weather by CustomWeather, © 2015

See weather overviewHow to use our weather pages